FW0606 Weather Reports


Display with metric or nautical units.
time (UTC)temp
F
wind
direction
speed
MPH
gust
MPH
rain 1hr
in
rain 24hr
in
rain mn
in
humidity
%
barometer
mb
20181216034624 39 13 0.0 0.0 0.00 0.00 0.00 70 1024.4
20181216033111 41 13 0.0 0.0 0.00 0.00 0.00 66 1024.3
20181216031651 42 13 0.0 0.0 0.00 0.00 0.00 66 1024.4
20181216030055 43 13 0.0 0.0 0.00 0.00 0.00 61 1024.5
20181216024652 44 13 0.0 1.0 0.00 0.00 0.00 59 1024.7
20181216023204 44 13 0.0 2.0 0.00 0.00 0.00 58 1024.4
20181216021601 45 13 0.0 2.0 0.00 0.00 0.00 57 1024.4
20181216020113 45 13 0.0 0.0 0.00 0.00 0.00 57 1024.1
20181216014547 46 13 0.0 0.0 0.00 0.00 0.00 56 1024.0
20181216013130 47 13 0.0 0.0 0.00 0.00 0.00 55 1023.8
20181216011619 47 13 0.0 0.0 0.00 0.00 0.00 55 1023.5
20181216010109 48 13 0.0 1.0 0.00 0.00 0.00 52 1023.5
20181216004605 49 13 0.0 0.0 0.00 0.00 0.00 50 1023.3
20181216003135 49 13 0.0 0.0 0.00 0.00 0.00 49 1023.2
20181216001558 50 13 0.0 0.0 0.00 0.00 0.00 47 1023.3
20181216000110 50 13 0.0 0.0 0.00 0.00 0.00 46 1022.9
20181215234557 52 13 0.0 0.0 0.00 0.00 0.00 43 1022.8
20181215233051 53 13 0.0 0.0 0.00 0.00 0.00 41 1022.6
20181215231622 55 13 0.0 0.0 0.00 0.00 0.00 36 1022.5
20181215230102 57 13 0.0 2.0 0.00 0.00 0.00 33 1022.6
20181215224537 57 13 0.0 3.0 0.00 0.00 0.00 33 1022.3
20181215223050 58 325 2.0 5.0 0.00 0.00 0.00 31 1022.1
20181215221551 59 340 2.0 4.0 0.00 0.00 0.00 32 1022.0
20181215220027 60 19 1.0 5.0 0.00 0.00 0.00 30 1022.1
20181215214530 60 317 1.0 5.0 0.00 0.00 0.00 29 1021.9
20181215213029 60 315 2.0 8.0 0.00 0.00 0.00 30 1022.0
20181215211609 60 348 3.0 7.0 0.00 0.00 0.00 28 1022.0
20181215210027 60 313 3.0 8.0 0.00 0.00 0.00 27 1021.9
20181215204543 59 331 3.0 10.0 0.00 0.00 0.00 29 1021.9
20181215203055 60 22 2.0 8.0 0.00 0.00 0.00 27 1021.9
20181215201556 58 313 3.0 8.0 0.00 0.00 0.00 29 1021.9
20181215200048 58 311 1.0 10.0 0.00 0.00 0.00 31 1021.8
20181215194538 59 319 2.0 5.0 0.00 0.00 0.00 31 1021.8
20181215193022 57 325 4.0 10.0 0.00 0.00 0.00 31 1022.1
20181215191523 57 311 3.0 11.0 0.00 0.00 0.00 33 1022.2
20181215190034 57 5 4.0 9.0 0.00 0.00 0.00 32 1022.5
20181215184546 57 296 5.0 9.0 0.00 0.00 0.00 32 1022.7
20181215183024 56 360 3.0 11.0 0.00 0.00 0.00 35 1022.9
20181215181537 55 303 2.0 12.0 0.00 0.00 0.00 37 1023.0
20181215180018 55 333 2.0 10.0 0.00 0.00 0.00 39 1023.2
20181215174509 53 304 2.0 10.0 0.00 0.06 0.00 41 1023.4
20181215173004 53 315 4.0 9.0 0.00 0.06 0.00 45 1023.7
20181215171731 51 311 6.0 13.0 0.00 0.06 0.00 45 1023.9
20181215170113 51 342 4.0 9.0 0.00 0.06 0.00 49 1024.2
20181215164640 50 331 4.0 10.0 0.00 0.06 0.00 50 1024.5
20181215163138 49 306 2.0 10.0 0.00 0.06 0.00 53 1024.4
20181215161640 48 320 2.0 11.0 0.00 0.06 0.00 54 1024.2
20181215160123 46 300 2.0 10.0 0.00 0.06 0.00 55 1024.4
20181215154613 44 318 6.0 11.0 0.00 0.06 0.00 55 1024.3
20181215153140 43 309 4.0 12.0 0.00 0.06 0.00 57 1024.1
20181215151627 42 337 2.0 10.0 0.00 0.06 0.00 59 1024.0
20181215150055 40 314 3.0 8.0 0.00 0.06 0.00 60 1023.8
20181215144652 39 288 2.0 8.0 0.00 0.06 0.00 63 1023.8
20181215143105 37 281 4.0 10.0 0.00 0.06 0.00 64 1023.8
20181215141633 36 299 0.0 4.0 0.00 0.06 0.00 66 1023.2
20181215140143 36 311 1.0 5.0 0.00 0.06 0.00 66 1023.2
20181215134604 36 279 1.0 8.0 0.00 0.07 0.00 66 1023.2
20181215133107 36 301 2.0 9.0 0.00 0.07 0.00 65 1022.8
20181215131614 36 315 2.0 10.0 0.00 0.07 0.00 66 1022.7
20181215130038 36 317 3.0 9.0 0.00 0.07 0.00 65 1022.8
20181215124626 36 301 3.0 8.0 0.00 0.07 0.00 65 1022.8
20181215123120 36 313 3.0 10.0 0.00 0.07 0.00 66 1022.5
20181215121549 36 290 2.0 8.0 0.00 0.07 0.00 66 1022.1
20181215120053 36 296 3.0 9.0 0.00 0.07 0.00 67 1022.0
20181215114519 36 296 2.0 10.0 0.00 0.08 0.00 68 1021.9
20181215113030 37 305 1.0 5.0 0.00 0.08 0.00 66 1021.6
20181215111526 38 348 3.0 10.0 0.00 0.08 0.00 64 1021.2
20181215110025 38 301 2.0 8.0 0.00 0.08 0.00 64 1021.2
20181215104509 38 333 2.0 6.0 0.00 0.10 0.00 62 1021.2
20181215103011 39 300 2.0 8.0 0.00 0.10 0.00 61 1021.2
20181215101505 39 321 4.0 8.0 0.00 0.10 0.00 59 1021.0
20181215100208 39 329 1.0 9.0 0.00 0.10 0.00 59 1020.9
20181215094708 39 325 2.0 10.0 0.00 0.15 0.00 59 1021.0
20181215093249 40 300 4.0 10.0 0.00 0.15 0.00 58 1021.2
20181215091616 40 313 4.0 10.0 0.00 0.15 0.00 57 1021.2
20181215090127 41 346 3.0 9.0 0.00 0.15 0.00 56 1021.2
20181215084625 41 19 2.0 12.0 0.00 0.26 0.00 54 1021.1
20181215083142 42 305 3.0 9.0 0.00 0.26 0.00 51 1021.2
20181215081634 43 298 4.0 12.0 0.00 0.26 0.00 49 1021.4
20181215080113 43 9 3.0 12.0 0.00 0.26 0.00 49 1021.4
20181215074546 44 333 2.0 9.0 0.00 0.30 0.00 49 1021.4
20181215073100 44 331 3.0 11.0 0.00 0.30 0.00 49 1021.4
20181215071607 44 321 4.0 13.0 0.00 0.30 0.00 50 1021.4
20181215070129 44 346 6.0 14.0 0.00 0.30 0.00 51 1021.5
20181215064627 44 289 5.0 15.0 0.00 0.34 0.00 50 1021.5
20181215063112 44 319 6.0 12.0 0.00 0.34 0.00 51 1021.4
20181215061551 45 346 7.0 20.0 0.00 0.34 0.00 50 1021.4
20181215060030 44 340 4.0 13.0 0.00 0.34 0.00 56 1021.4
20181215054544 44 324 3.0 9.0 0.00 0.38 0.34 58 1021.5
20181215053023 45 308 5.0 13.0 0.00 0.38 0.34 60 1021.4
20181215051553 45 302 4.0 12.0 0.00 0.38 0.34 62 1021.5
20181215050033 45 306 4.0 11.0 0.00 0.38 0.34 62 1021.4
20181215044522 46 294 4.0 11.0 0.00 0.47 0.34 62 1021.2
20181215043044 46 341 4.0 12.0 0.00 0.47 0.34 62 1020.7
20181215041518 47 274 4.0 10.0 0.00 0.47 0.34 63 1020.9
20181215040019 47 338 4.0 12.0 0.00 0.47 0.34 63 1020.5